NSZ11 ESSA-EKCH

Flight info

Callsign NSZ11
Flight time 1h 0m
Altitude 32000
Route PETEV N872 ELPAX DCT TOKSI N872 ERNOV
Aircraft B38M/M-SDE1FGHILORVWXY/HB1

Departure

Time 2026-04-25 16:01
Airport Stockholm-Arlanda Airport (ESSA)

Arrival

Time 2026-04-25 17:01
Airport Copenhagen Kastrup Airport (EKCH)
Time Latitude Longitude Altitude Speed Heading
2026-04-25 15:37 59.65139 17.92797 114 ft 0 kts 190°
2026-04-25 15:54 59.65147 17.92800 112 ft 4 kts 190°
2026-04-25 15:54 59.65174 17.92809 111 ft 4 kts 188°
2026-04-25 15:55 59.65201 17.92816 111 ft 4 kts 186°
2026-04-25 15:55 59.65227 17.92819 113 ft 4 kts 180°
2026-04-25 15:55 59.65254 17.92815 111 ft 4 kts 164°
2026-04-25 15:55 59.65265 17.92807 113 ft 1 kts 152°
2026-04-25 15:57 59.65264 17.92808 113 ft 1 kts 152°
2026-04-25 15:57 59.65251 17.92819 111 ft 3 kts 167°
2026-04-25 15:57 59.65234 17.92800 112 ft 4 kts 231°
2026-04-25 15:58 59.65239 17.92716 114 ft 9 kts 284°
2026-04-25 15:58 59.65263 17.92567 112 ft 14 kts 289°
2026-04-25 15:58 59.65229 17.92400 113 ft 16 kts 200°
2026-04-25 15:58 59.65115 17.92352 110 ft 18 kts 190°
2026-04-25 15:59 59.64986 17.92306 114 ft 20 kts 190°
2026-04-25 15:59 59.64844 17.92254 114 ft 22 kts 191°
2026-04-25 15:59 59.64690 17.92197 114 ft 23 kts 191°
2026-04-25 15:59 59.64527 17.92145 115 ft 24 kts 192°
2026-04-25 16:00 59.64414 17.92024 114 ft 19 kts 248°
2026-04-25 16:00 59.64406 17.91937 114 ft 20 kts 263°
2026-04-25 16:00 59.64496 17.91597 112 ft 17 kts 10°
2026-04-25 16:00 59.64723 17.91683 110 ft 71 kts 11°
2026-04-25 16:01 59.65484 17.91960 111 ft 148 kts 10°
2026-04-25 16:01 59.66616 17.92388 674 ft 170 kts
2026-04-25 16:01 59.67810 17.92819 1712 ft 176 kts
2026-04-25 16:01 59.69035 17.92432 2385 ft 197 kts 328°
2026-04-25 16:02 59.69764 17.90281 3584 ft 188 kts 290°
2026-04-25 16:02 59.69791 17.87562 4402 ft 212 kts 261°
2026-04-25 16:02 59.69365 17.84709 5215 ft 218 kts 265°
2026-04-25 16:02 59.69101 17.81739 6122 ft 220 kts 268°
2026-04-25 16:03 59.68833 17.78744 7067 ft 221 kts 267°
2026-04-25 16:03 59.68426 17.75673 7733 ft 241 kts 260°
2026-04-25 16:03 59.67922 17.72425 8308 ft 259 kts 260°
2026-04-25 16:03 59.67362 17.68931 9005 ft 274 kts 254°
2026-04-25 16:04 59.66240 17.65768 9896 ft 292 kts 227°
2026-04-25 16:04 59.64432 17.63641 10504 ft 317 kts 203°
2026-04-25 16:04 59.62268 17.62380 11114 ft 330 kts 201°
2026-04-25 16:04 59.60038 17.61044 11784 ft 339 kts 201°
2026-04-25 16:05 59.57771 17.59668 12656 ft 341 kts 201°
2026-04-25 16:05 59.55492 17.58281 13510 ft 343 kts 201°
2026-04-25 16:05 59.51251 17.54353 14999 ft 336 kts 227°
2026-04-25 16:06 59.49485 17.51275 15668 ft 341 kts 226°
2026-04-25 16:06 59.47698 17.48181 16382 ft 343 kts 226°
2026-04-25 16:06 59.45905 17.45053 17065 ft 346 kts 226°
2026-04-25 16:06 59.44100 17.41892 17744 ft 349 kts 226°
2026-04-25 16:07 59.42281 17.38704 18339 ft 352 kts 226°
2026-04-25 16:07 59.41688 17.37664 18509 ft 353 kts 226°
2026-04-25 16:07 59.38623 17.32300 19417 ft 358 kts 226°
2026-04-25 16:07 59.36756 17.29037 19945 ft 361 kts 226°
2026-04-25 16:08 59.34871 17.25748 20470 ft 364 kts 226°
2026-04-25 16:08 59.32975 17.22444 20995 ft 366 kts 226°
2026-04-25 16:08 59.31064 17.19120 21506 ft 368 kts 227°
2026-04-25 16:08 59.29146 17.15790 22085 ft 369 kts 227°
2026-04-25 16:09 59.27220 17.12449 22562 ft 372 kts 227°
2026-04-25 16:09 59.25275 17.09083 23079 ft 375 kts 227°
2026-04-25 16:09 59.23314 17.05693 23514 ft 377 kts 226°
2026-04-25 16:09 59.21340 17.02287 23898 ft 380 kts 226°
2026-04-25 16:10 59.19299 16.98950 24276 ft 384 kts 225°
2026-04-25 16:10 59.17238 16.95604 24668 ft 387 kts 225°
2026-04-25 16:10 59.15161 16.92225 25042 ft 390 kts 225°
2026-04-25 16:10 59.13071 16.88827 25431 ft 393 kts 225°
2026-04-25 16:11 59.10984 16.85438 25802 ft 396 kts 225°
2026-04-25 16:11 59.08861 16.81995 26158 ft 399 kts 225°
2026-04-25 16:11 59.06712 16.78515 26467 ft 403 kts 225°
2026-04-25 16:11 59.04545 16.75014 26876 ft 406 kts 225°
2026-04-25 16:12 59.02365 16.71497 27221 ft 409 kts 225°
2026-04-25 16:12 59.00158 16.67942 27582 ft 412 kts 225°
2026-04-25 16:12 58.97945 16.64383 27921 ft 415 kts 225°
2026-04-25 16:12 58.97190 16.63171 28032 ft 416 kts 225°
2026-04-25 16:13 58.93451 16.57177 28600 ft 422 kts 225°
2026-04-25 16:13 58.91184 16.53548 28942 ft 425 kts 225°
2026-04-25 16:13 58.88923 16.49947 29250 ft 428 kts 225°
2026-04-25 16:13 58.86616 16.46279 29563 ft 430 kts 225°
2026-04-25 16:14 58.84293 16.42591 29898 ft 432 kts 225°
2026-04-25 16:14 58.81973 16.38913 30283 ft 430 kts 225°
2026-04-25 16:14 58.79668 16.35265 30689 ft 429 kts 225°
2026-04-25 16:14 58.77358 16.31618 30994 ft 429 kts 225°
2026-04-25 16:15 58.75045 16.27971 31307 ft 430 kts 225°
2026-04-25 16:15 58.72719 16.24312 31620 ft 431 kts 225°
2026-04-25 16:15 58.70395 16.20661 31726 ft 432 kts 225°
2026-04-25 16:16 58.65774 16.13423 31726 ft 430 kts 225°
2026-04-25 16:16 58.61127 16.06170 31718 ft 430 kts 225°
2026-04-25 16:17 58.56486 15.98952 31702 ft 429 kts 225°
2026-04-25 16:17 58.51841 15.91752 31689 ft 429 kts 225°
2026-04-25 16:18 58.47199 15.84582 31690 ft 429 kts 225°
2026-04-25 16:18 58.42553 15.77430 31690 ft 429 kts 225°
2026-04-25 16:19 58.37905 15.70300 31668 ft 429 kts 225°
2026-04-25 16:19 58.33227 15.63147 31649 ft 432 kts 225°
2026-04-25 16:20 58.26224 15.52486 31675 ft 431 kts 225°
2026-04-25 16:21 58.19181 15.41820 31687 ft 431 kts 225°
2026-04-25 16:21 58.14488 15.34744 31684 ft 431 kts 225°
2026-04-25 16:22 58.09789 15.27681 31652 ft 431 kts 225°
2026-04-25 16:22 58.05115 15.20688 31683 ft 431 kts 225°
2026-04-25 16:23 58.00408 15.13668 31688 ft 431 kts 225°
2026-04-25 16:23 57.95694 15.06661 31685 ft 431 kts 225°
2026-04-25 16:24 57.90979 14.99677 31704 ft 431 kts 225°
2026-04-25 16:24 57.86258 14.92707 31700 ft 431 kts 225°
2026-04-25 16:25 57.81558 14.85793 31702 ft 431 kts 225°
2026-04-25 16:25 57.76825 14.78854 31700 ft 431 kts 225°
2026-04-25 16:26 57.72093 14.71940 31704 ft 431 kts 225°
2026-04-25 16:26 57.67359 14.65046 31707 ft 431 kts 225°
2026-04-25 16:27 57.63411 14.59315 31651 ft 435 kts 225°
2026-04-25 16:27 57.58610 14.52367 31704 ft 436 kts 225°
2026-04-25 16:28 57.53806 14.45440 31721 ft 436 kts 225°
2026-04-25 16:28 57.49003 14.38537 31732 ft 436 kts 225°
2026-04-25 16:29 57.44199 14.31656 31730 ft 436 kts 225°
2026-04-25 16:29 57.39388 14.24790 31725 ft 436 kts 225°
2026-04-25 16:30 57.34578 14.17946 31741 ft 436 kts 225°
2026-04-25 16:30 57.32236 14.14627 31752 ft 422 kts 226°
2026-04-25 16:30 57.29940 14.11374 31733 ft 409 kts 226°
2026-04-25 16:30 57.27691 14.08191 31327 ft 405 kts 226°
2026-04-25 16:31 57.25447 14.05014 30715 ft 408 kts 226°
2026-04-25 16:31 57.23197 14.01841 30235 ft 407 kts 226°
2026-04-25 16:31 57.20952 13.98682 29839 ft 404 kts 226°
2026-04-25 16:31 57.18726 13.95554 29329 ft 401 kts 226°
2026-04-25 16:32 57.16513 13.92445 28873 ft 397 kts 226°
2026-04-25 16:32 57.14319 13.89378 28317 ft 395 kts 227°
2026-04-25 16:32 57.12150 13.86346 27919 ft 385 kts 227°
2026-04-25 16:32 57.10055 13.83422 27776 ft 374 kts 227°
2026-04-25 16:33 57.08010 13.80566 27776 ft 373 kts 227°
2026-04-25 16:33 57.05940 13.77682 27753 ft 373 kts 227°
2026-04-25 16:33 57.03874 13.74808 27744 ft 370 kts 227°
2026-04-25 16:33 57.01823 13.71954 27177 ft 372 kts 227°
2026-04-25 16:34 56.99729 13.69047 26308 ft 383 kts 226°
2026-04-25 16:34 56.97573 13.66062 25391 ft 394 kts 226°
2026-04-25 16:34 56.95352 13.62992 24460 ft 404 kts 226°
2026-04-25 16:34 56.93092 13.59874 23783 ft 408 kts 226°
2026-04-25 16:35 56.90839 13.56772 23312 ft 403 kts 227°
2026-04-25 16:35 56.88605 13.53698 22835 ft 398 kts 227°
2026-04-25 16:35 56.86396 13.50663 22295 ft 395 kts 226°
2026-04-25 16:35 56.84210 13.47663 21805 ft 391 kts 226°
2026-04-25 16:36 56.82062 13.44719 21299 ft 389 kts 225°
2026-04-25 16:36 56.81333 13.43722 21140 ft 388 kts 225°
2026-04-25 16:36 56.77760 13.38838 20338 ft 383 kts 224°
2026-04-25 16:36 56.75638 13.35942 19881 ft 380 kts 224°
2026-04-25 16:37 56.73525 13.33061 19429 ft 377 kts 224°
2026-04-25 16:37 56.71431 13.30203 18976 ft 375 kts 223°
2026-04-25 16:37 56.69350 13.27367 18547 ft 372 kts 223°
2026-04-25 16:37 56.67298 13.24575 17746 ft 367 kts 223°
2026-04-25 16:38 56.65246 13.21784 17045 ft 368 kts 224°
2026-04-25 16:38 56.63205 13.19021 16682 ft 363 kts 224°
2026-04-25 16:38 56.61187 13.16296 16225 ft 361 kts 224°
2026-04-25 16:38 56.59204 13.13620 15804 ft 358 kts 224°
2026-04-25 16:39 56.57210 13.10935 15386 ft 356 kts 224°
2026-04-25 16:39 56.55228 13.08270 14949 ft 353 kts 223°
2026-04-25 16:39 56.53256 13.05621 14518 ft 351 kts 223°
2026-04-25 16:39 56.51303 13.03000 14098 ft 349 kts 223°
2026-04-25 16:40 56.49356 13.00392 13692 ft 346 kts 223°
2026-04-25 16:40 56.47424 12.97806 13229 ft 344 kts 223°
2026-04-25 16:40 56.45502 12.95237 12762 ft 343 kts 223°
2026-04-25 16:40 56.43590 12.92686 12287 ft 341 kts 223°
2026-04-25 16:41 56.41688 12.90151 11909 ft 337 kts 224°
2026-04-25 16:41 56.40443 12.88492 11608 ft 336 kts 224°
2026-04-25 16:41 56.36068 12.82679 10658 ft 332 kts 224°
2026-04-25 16:42 56.34209 12.80215 10286 ft 329 kts 224°
2026-04-25 16:42 56.32370 12.77778 9926 ft 327 kts 224°
2026-04-25 16:42 56.30537 12.75353 9794 ft 327 kts 224°
2026-04-25 16:42 56.28700 12.72924 9792 ft 328 kts 224°
2026-04-25 16:43 56.26859 12.70495 9802 ft 329 kts 224°
2026-04-25 16:43 56.25014 12.68063 9799 ft 329 kts 224°
2026-04-25 16:43 56.23165 12.65628 9805 ft 330 kts 223°
2026-04-25 16:43 56.21315 12.63195 9813 ft 330 kts 223°
2026-04-25 16:44 56.19483 12.60789 9797 ft 330 kts 223°
2026-04-25 16:44 56.17630 12.58356 9811 ft 330 kts 223°
2026-04-25 16:44 56.15587 12.56390 9826 ft 340 kts 206°
2026-04-25 16:44 56.13357 12.54933 9827 ft 341 kts 207°
2026-04-25 16:45 56.11179 12.53472 9694 ft 326 kts 207°
2026-04-25 16:45 56.09085 12.52055 9228 ft 316 kts 207°
2026-04-25 16:45 56.07061 12.50680 8817 ft 306 kts 208°
2026-04-25 16:45 56.05101 12.49347 8446 ft 296 kts 208°
2026-04-25 16:46 56.03207 12.48060 8054 ft 288 kts 208°
2026-04-25 16:46 56.01360 12.46807 7499 ft 287 kts 208°
2026-04-25 16:46 55.99501 12.45547 6981 ft 284 kts 208°
2026-04-25 16:46 55.98879 12.45125 6792 ft 284 kts 208°
2026-04-25 16:47 55.95824 12.43056 5907 ft 281 kts 208°
2026-04-25 16:47 55.94000 12.41823 5340 ft 280 kts 207°
2026-04-25 16:47 55.92177 12.40592 4770 ft 281 kts 208°
2026-04-25 16:47 55.90346 12.39356 4445 ft 279 kts 207°
2026-04-25 16:48 55.88531 12.38135 4138 ft 278 kts 208°
2026-04-25 16:48 55.86727 12.36952 3907 ft 276 kts 203°
2026-04-25 16:48 55.84778 12.36772 3623 ft 288 kts 172°
2026-04-25 16:48 55.82954 12.38297 3269 ft 296 kts 141°
2026-04-25 16:49 55.81676 12.41113 3063 ft 291 kts 119°
2026-04-25 16:49 55.80598 12.44172 3060 ft 290 kts 121°
2026-04-25 16:49 55.79510 12.47179 3051 ft 288 kts 121°
2026-04-25 16:49 55.78425 12.50161 3031 ft 287 kts 122°
2026-04-25 16:50 55.77340 12.53130 3014 ft 286 kts 122°
2026-04-25 16:50 55.76252 12.56098 3026 ft 287 kts 122°
2026-04-25 16:50 55.75161 12.59069 3016 ft 287 kts 122°
2026-04-25 16:50 55.74072 12.62033 3005 ft 287 kts 122°
2026-04-25 16:51 55.72995 12.64961 3011 ft 287 kts 122°
2026-04-25 16:51 55.71901 12.67930 3012 ft 287 kts 122°
2026-04-25 16:51 55.70807 12.70895 3015 ft 287 kts 122°
2026-04-25 16:51 55.70436 12.71899 3019 ft 288 kts 122°
2026-04-25 16:52 55.68615 12.76831 3016 ft 287 kts 122°
2026-04-25 16:52 55.67521 12.79790 3011 ft 287 kts 122°
2026-04-25 16:52 55.66422 12.82758 3020 ft 288 kts 122°
2026-04-25 16:52 55.65325 12.85717 3019 ft 287 kts 122°
2026-04-25 16:53 55.63133 12.91618 3014 ft 286 kts 123°
2026-04-25 16:53 55.62018 12.94524 2964 ft 284 kts 122°
2026-04-25 16:53 55.60903 12.97421 3004 ft 281 kts 123°
2026-04-25 16:54 55.59842 13.00183 3029 ft 267 kts 123°
2026-04-25 16:54 55.58769 13.02756 3016 ft 254 kts 137°
2026-04-25 16:54 55.57321 13.04301 2980 ft 238 kts 169°
2026-04-25 16:54 55.55736 13.04493 2987 ft 223 kts 199°
2026-04-25 16:55 55.54313 13.03634 3000 ft 213 kts 215°
2026-04-25 16:55 55.52980 13.02476 2995 ft 212 kts 217°
2026-04-25 16:55 55.51680 13.01252 2978 ft 210 kts 222°
2026-04-25 16:55 55.50762 12.99488 2947 ft 186 kts 258°
2026-04-25 16:56 55.50625 12.97364 2982 ft 168 kts 287°
2026-04-25 16:56 55.51048 12.95488 3000 ft 163 kts 301°
2026-04-25 16:56 55.51583 12.93765 2992 ft 159 kts 300°
2026-04-25 16:56 55.52097 12.92047 2991 ft 156 kts 301°
2026-04-25 16:57 55.52632 12.90425 2967 ft 150 kts 303°
2026-04-25 16:57 55.52808 12.89920 2939 ft 149 kts 304°
2026-04-25 16:57 55.53729 12.87367 2743 ft 146 kts 304°
2026-04-25 16:57 55.54292 12.85838 2549 ft 147 kts 305°
2026-04-25 16:58 55.54848 12.84332 2392 ft 146 kts 305°
2026-04-25 16:58 55.55407 12.82823 2195 ft 147 kts 305°
2026-04-25 16:58 55.55961 12.81330 2000 ft 147 kts 305°
2026-04-25 16:58 55.56515 12.79834 1797 ft 138 kts 305°
2026-04-25 16:59 55.57001 12.78521 1618 ft 121 kts 304°
2026-04-25 16:59 55.57459 12.77286 1460 ft 120 kts 305°
2026-04-25 16:59 55.57913 12.76062 1299 ft 119 kts 304°
2026-04-25 16:59 55.58368 12.74832 1124 ft 120 kts 305°
2026-04-25 17:00 55.58830 12.73589 956 ft 121 kts 305°
2026-04-25 17:00 55.59299 12.72323 787 ft 125 kts 305°
2026-04-25 17:00 55.59774 12.71043 645 ft 124 kts 304°
2026-04-25 17:00 55.60246 12.69778 456 ft 124 kts 304°
2026-04-25 17:01 55.60720 12.68507 280 ft 127 kts 303°
2026-04-25 17:01 55.61205 12.67205 112 ft 126 kts 303°
2026-04-25 17:01 55.61667 12.65937 23 ft 112 kts 302°
2026-04-25 17:01 55.61973 12.65106 19 ft 48 kts 302°
2026-04-25 17:02 55.62086 12.65037 22 ft 19 kts 34°
2026-04-25 17:02 55.62138 12.65097 20 ft 6 kts 27°
2026-04-25 17:02 55.62183 12.65145 20 ft 9 kts 31°
2026-04-25 17:02 55.62245 12.65145 21 ft 11 kts 320°
2026-04-25 17:03 55.62294 12.65020 19 ft 15 kts 303°
2026-04-25 17:03 55.62372 12.64809 19 ft 26 kts 303°
2026-04-25 17:03 55.62494 12.64481 19 ft 37 kts 303°
2026-04-25 17:03 55.62641 12.64082 21 ft 39 kts 303°
2026-04-25 17:04 55.62734 12.63912 19 ft 16 kts
2026-04-25 17:04 55.62820 12.64033 19 ft 13 kts 58°
2026-04-25 17:04 55.62835 12.64149 19 ft 9 kts 102°
2026-04-25 17:04 55.62827 12.64175 21 ft 4 kts 123°
2026-04-25 17:05 55.62813 12.64213 19 ft 0 kts 123°
2026-04-25 17:05 55.62812 12.64214 19 ft 0 kts 123°